Regional Weather Roundup
Issued by NWS Mt. Holly, NJ

Home | Current Version | Previous Version | Text Only | Print | Product List | Glossary On
Versions: 1 2 3 4 5 6 7 8 9 10 11 12 13 14 15 16 17 18 19 20 21 22 23 24 25 26 27 28 29 30 31 32 33 34 35 36 37 38 39 40 41 42 43 44 45 46 47 48 49 50
000
ASUS41 KPHI 171912
RWRPHI

REGIONAL WEATHER ROUNDUP
NATIONAL WEATHER SERVICE MOUNT HOLLY NJ
300 PM EDT TUE OCT 17 2017

NOTE:  "FAIR" INDICATES FEW OR NO CLOUDS BELOW 12,000 FEET WITH NO
SIGNIFICANT WEATHER AND/OR OBSTRUCTIONS TO VISIBILITY.

 * = STATION DOES NOT REPORT PRECIPITATION (E.G. RAIN, SNOW, ETC.)
        OR FOG.

NJZ015>026-172000-
SOUTHERN NEW JERSEY

CITY           SKY/WX    TMP DP  RH WIND       PRES   REMARKS
POMONA         SUNNY     60  35  39 N3        30.30S
WILDWOOD*      SUNNY     56  37  49 VRB6      30.31F
MILLVILLE      SUNNY     61  37  41 W5        30.30F
WRIGHTSTOWN    SUNNY     59  32  36 NW7       30.28F
MOUNT HOLLY    SUNNY     58  32  37 W5        30.29F
TRENTON        SUNNY     59  35  40 W7        30.28F

$$
NJZ001>014-172000-
NORTHERN NEW JERSEY

CITY           SKY/WX    TMP DP  RH WIND       PRES   REMARKS
SUSSEX         SUNNY     58  34  40 VRB3      30.25F
ANDOVER*         N/A     59  32  36 SW7       30.26F
MORRISTOWN     SUNNY     59  36  41 W5        30.27F
NEWARK         SUNNY     60  30  32 MISG      30.27F
TETERBORO      SUNNY     61  30  31 CALM      30.26F
CALDWELL       SUNNY     58  33  39 S7        30.27F
SOMERVILLE     SUNNY     62  35  36 NW3       30.26F
ALLAIRE*       SUNNY     57  33  40 CALM      30.30F
TOMS RIVER*      N/A     58  35  42 N3        30.29F

$$
PAZ043-044-047-054-055-060>062-066>071-172000-
EASTERN PENNSYLVANIA

CITY           SKY/WX    TMP DP  RH WIND       PRES   REMARKS
PHILADELPHIA   SUNNY     60  32  34 N6        30.30F
NORTH PHILA    SUNNY     62  35  36 CALM      30.30F
BLUE BELL*     SUNNY     59  36  41 CALM      30.30F
DOYLESTOWN     SUNNY     58  34  40 CALM      30.27F
QUAKERTOWN*    SUNNY     59  32  36 W5        30.29F
PERKASIE*      FAIR      57  34  41 CALM      30.29F
POTTSTOWN      SUNNY     58  34  40 CALM      30.30F
LANCASTER      SUNNY     58  33  39 SW7       30.29F
COATESVILLE    SUNNY     57  34  41 W6        30.30F
READING        SUNNY     60  36  40 W5        30.28F
ALLENTOWN      SUNNY     61  33  35 CALM      30.27F
MOUNT POCONO   SUNNY     54  22  28 SW10      30.24F
HAZLETON       SUNNY     59  28  31 CALM      30.29F
LEHIGHTON      FAIR      61  27  27 SW6       30.26F
WILKES BARRE   SUNNY     58  31  35 SW7       30.25F

$$
DEZALL-MDZ008-012-015-019-020-172000-
DELAWARE AND EASTERN MARYLAND

CITY           SKY/WX    TMP DP  RH WIND       PRES   REMARKS
WILMINGTON     SUNNY     61  32  33 N6        30.30F
DOVER          MOSUNNY   59  38  45 CALM      30.29F
GEORGETOWN     SUNNY     58  35  42 SE3       30.31F
EASTON         SUNNY     61  32  33 N5        30.34F
ABERDEEN       SUNNY     60  34  37 CALM      30.30F
PATUXENT       MOSUNNY   59  31  34 N8G18     30.31F
OCEAN CITY     SUNNY     57  40  52 NE8       30.32S
WALLOPS ISLAND MOSUNNY   58  42  55 E7        30.31F
CAMBRIDGE      SUNNY     59  36  41 W5        30.31F
SALISBURY      SUNNY     59  36  42 N6        30.30F

$$
PAZ001-021-NYZ056-072-MDZ011-DCZ001-172000-
OTHER NEARBY LOCATIONS

CITY           SKY/WX    TMP DP  RH WIND       PRES   REMARKS
HARRISBURG     SUNNY     60  32  34 NW6       30.28F
STATE COLLEGE  SUNNY     59  36  41 SW5       30.26F
WILLIAMSPORT   SUNNY     61  37  41 VRB3      30.24F
BINGHAMTON     SUNNY     54  31  41 SW7       30.20F
NEW YORK CITY  SUNNY     58  29  33 VRB3      30.30F
BALTIMORE      MOSUNNY   62  32  32 N6        30.30F
WASHINGTON DC  MOSUNNY   63  33  32 CALM      30.31F

$$



USA.gov is the U.S. government's official web portal to all federal, state and local government web resources and services.